TimeEDT,TemperatureF,Dew PointF,Humidity,Sea Level PressureIn,VisibilityMPH,Wind Direction,Wind SpeedMPH,Gust SpeedMPH,PrecipitationIn,Events,Conditions,WindDirDegrees,DateUTC
12:06 AM,60.8,60.8,100,30.03,1.2,Calm,Calm,-,N/A,,Partly Cloudy,0,2013-10-01 04:06:00
12:13 AM,60.8,60.8,100,30.03,0.8,Calm,Calm,-,N/A,,Clear,0,2013-10-01 04:13:00
12:41 AM,60.8,60.8,100,30.03,3.0,Calm,Calm,-,N/A,,Clear,0,2013-10-01 04:41:00
12:47 AM,60.8,60.8,100,30.03,1.8,Calm,Calm,-,N/A,,Clear,0,2013-10-01 04:47:00
12:53 AM,59.0,59.0,100,30.03,1.0,Calm,Calm,-,N/A,,Clear,0,2013-10-01 04:53:00
12:59 AM,57.2,57.2,100,30.03,0.2,Calm,Calm,-,N/A,Fog,Fog,0,2013-10-01 04:59:00
1:09 AM,57.2,57.2,100,30.03,1.2,Calm,Calm,-,N/A,,Clear,0,2013-10-01 05:09:00
1:11 AM,59.0,57.2,94,30.03,3.0,Calm,Calm,-,N/A,,Clear,0,2013-10-01 05:11:00
1:21 AM,59.0,59.0,100,30.03,2.5,Calm,Calm,-,N/A,,Scattered Clouds,0,2013-10-01 05:21:00
1:32 AM,59.0,59.0,100,30.03,1.5,Calm,Calm,-,N/A,,Mostly Cloudy,0,2013-10-01 05:32:00
1:40 AM,59.0,59.0,100,30.04,0.5,Calm,Calm,-,N/A,Fog,Fog,0,2013-10-01 05:40:00
1:48 AM,59.0,59.0,100,30.04,0.2,Calm,Calm,-,N/A,Fog,Fog,0,2013-10-01 05:48:00
1:53 AM,57.9,57.9,100,30.04,0.2,Calm,Calm,-,N/A,Fog,Fog,0,2013-10-01 05:53:00
2:05 AM,59.0,59.0,100,30.04,1.0,Calm,Calm,-,N/A,,Overcast,0,2013-10-01 06:05:00
2:09 AM,59.0,59.0,100,30.04,4.0,Calm,Calm,-,N/A,,Overcast,0,2013-10-01 06:09:00
2:48 AM,57.2,57.2,100,30.04,1.8,Calm,Calm,-,N/A,,Overcast,0,2013-10-01 06:48:00
2:53 AM,57.9,57.9,100,30.04,1.0,Calm,Calm,-,N/A,,Overcast,0,2013-10-01 06:53:00
3:16 AM,57.2,57.2,100,30.04,3.0,Calm,Calm,-,N/A,,Scattered Clouds,0,2013-10-01 07:16:00
3:31 AM,57.2,57.2,100,30.04,1.8,Calm,Calm,-,N/A,,Mostly Cloudy,0,2013-10-01 07:31:00
3:38 AM,57.2,57.2,100,30.04,0.2,Calm,Calm,-,N/A,Fog,Fog,0,2013-10-01 07:38:00
3:53 AM,57.0,57.0,100,30.04,0.2,Calm,Calm,-,N/A,Fog,Fog,0,2013-10-01 07:53:00
4:53 AM,55.9,55.9,100,30.04,0.2,Calm,Calm,-,0.01,Fog,Fog,0,2013-10-01 08:53:00
5:53 AM,57.0,57.0,100,30.05,0.2,Calm,Calm,-,N/A,Fog,Fog,0,2013-10-01 09:53:00
6:53 AM,57.0,57.0,100,30.07,0.5,Calm,Calm,-,N/A,Fog,Fog,0,2013-10-01 10:53:00
7:53 AM,57.0,57.0,100,30.09,0.5,Calm,Calm,-,N/A,Fog,Fog,0,2013-10-01 11:53:00
8:47 AM,59.0,59.0,100,30.11,4.0,Calm,Calm,-,N/A,,Overcast,0,2013-10-01 12:47:00
8:53 AM,59.0,59.0,100,30.10,4.0,Calm,Calm,-,N/A,,Overcast,0,2013-10-01 12:53:00
9:53 AM,63.0,61.0,93,30.11,7.0,Calm,Calm,-,N/A,,Mostly Cloudy,0,2013-10-01 13:53:00
10:53 AM,69.1,64.0,84,30.11,10.0,Calm,Calm,-,N/A,,Partly Cloudy,0,2013-10-01 14:53:00
11:53 AM,73.0,62.1,68,30.09,10.0,SSW,11.5,-,N/A,,Mostly Cloudy,210,2013-10-01 15:53:00
12:53 PM,73.9,61.0,64,30.09,10.0,SSW,6.9,-,N/A,,Mostly Cloudy,210,2013-10-01 16:53:00
1:53 PM,77.0,62.1,60,30.06,10.0,South,9.2,-,N/A,,Scattered Clouds,190,2013-10-01 17:53:00
2:53 PM,78.1,63.0,60,30.05,10.0,SSW,12.7,18.4,N/A,,Mostly Cloudy,210,2013-10-01 18:53:00
3:53 PM,77.0,61.0,58,30.04,10.0,SW,6.9,-,N/A,,Mostly Cloudy,220,2013-10-01 19:53:00
4:53 PM,77.0,62.1,60,30.03,10.0,SSW,6.9,-,N/A,,Mostly Cloudy,200,2013-10-01 20:53:00
5:53 PM,75.9,62.1,62,30.03,10.0,SW,8.1,-,N/A,,Partly Cloudy,220,2013-10-01 21:53:00
6:53 PM,72.0,62.1,71,30.03,10.0,SW,6.9,-,N/A,,Clear,230,2013-10-01 22:53:00
7:53 PM,64.0,61.0,90,30.04,10.0,Calm,Calm,-,N/A,,Clear,0,2013-10-01 23:53:00
8:53 PM,64.0,62.1,93,30.05,8.0,Calm,Calm,-,N/A,,Clear,0,2013-10-02 00:53:00
9:49 PM,62.6,62.6,100,30.06,1.5,Calm,Calm,-,N/A,,Clear,0,2013-10-02 01:49:00
9:53 PM,62.1,61.0,96,30.06,10.0,Calm,Calm,-,N/A,,Clear,0,2013-10-02 01:53:00
10:42 PM,60.8,60.8,100,30.07,10.0,Calm,Calm,-,N/A,,Partly Cloudy,0,2013-10-02 02:42:00
10:53 PM,60.1,60.1,100,30.06,10.0,Calm,Calm,-,N/A,,Clear,0,2013-10-02 02:53:00
11:00 PM,60.8,59.0,94,30.07,0.2,Calm,Calm,-,N/A,Fog,Fog,0,2013-10-02 03:00:00
11:07 PM,59.0,59.0,100,30.07,1.0,Calm,Calm,-,N/A,,Clear,0,2013-10-02 03:07:00
11:10 PM,59.0,59.0,100,30.07,3.0,Calm,Calm,-,N/A,,Clear,0,2013-10-02 03:10:00
11:15 PM,59.0,59.0,100,30.07,0.8,Calm,Calm,-,N/A,,Mist,0,2013-10-02 03:15:00
11:25 PM,60.8,60.8,100,30.07,0.2,Calm,Calm,-,N/A,Fog,Fog,0,2013-10-02 03:25:00
11:32 PM,59.0,59.0,100,30.07,0.5,Calm,Calm,-,N/A,Fog,Fog,0,2013-10-02 03:32:00
11:37 PM,60.8,60.8,100,30.07,0.2,Calm,Calm,-,N/A,Fog,Fog,0,2013-10-02 03:37:00
11:53 PM,60.1,60.1,100,30.07,1.0,Calm,Calm,-,N/A,,Mist,0,2013-10-02 03:53:00
11:58 PM,60.8,60.8,100,30.07,2.0,Calm,Calm,-,N/A,,Partly Cloudy,0,2013-10-02 03:58:00